Probability
0 0 0 0 0 0 0 0 0 0 0 0 0 0 0 0 0 1 0 0 0 1 3 3 3 4 6 7 7 6 6 5 8 13 13 11 10 10 8 7 7 6 3 1
0 0 0 0 0 0 0 0 0 0 0 0 0 0 0 0 0 1 0 0 0 0 2 3 3 4 6 7 6 6 5 5 7 11 12 10 9 8 7 6 6 6 3 2
0 0 0 0 0 0 0 0 0 0 0 0 0 0 0 0 0 0 0 0 0 0 1 3 3 3 4 5 5 4 4 5 6 8 10 9 8 6 5 4 4 5 4 3
0 0 0 0 0 0 0 0 0 0 0 0 0 0 0 0 0 0 0 0 0 1 2 3 3 3 3 4 3 3 4 5 6 7 7 8 7 4 3 3 3 4 3 3
0 0 0 0 0 0 0 0 0 0 0 0 0 0 0 0 0 0 0 0 0 1 2 3 4 3 3 3 3 3 3 4 5 5 5 5 4 2 1 2 2 2 2 2
0 0 0 0 0 0 0 0 0 0 0 0 0 0 0 0 0 0 0 0 1 1 3 4 4 4 3 3 3 3 3 3 4 4 3 3 2 1 1 1 1 1 1 1
0 0 0 0 0 0 0 0 0 0 0 0 0 0 0 0 0 0 0 1 2 3 4 5 4 3 3 3 3 3 3 3 3 3 3 2 1 0 0 0 0 0 0 0
0 0 0 0 0 0 0 0 0 0 0 0 0 0 0 0 0 0 0 1 3 3 3 4 3 3 3 3 3 3 3 3 3 3 3 1 0 0 0 0 0 0 0 0
0 0 0 0 0 0 0 0 0 0 0 0 0 0 0 0 0 0 0 1 2 2 2 3 2 1 2 3 3 3 3 3 3 3 2 1 0 0 0 0 0 0 0 0
0 0 0 0 0 0 0 0 0 0 0 0 0 0 0 0 0 0 0 1 1 1 2 2 1 0 1 1 2 2 2 2 2 2 2 1 0 0 0 0 0 0 0 0
0 0 0 0 0 0 0 0 0 0 0 0 0 0 0 0 0 0 0 0 0 1 2 2 1 0 0 0 1 1 1 1 1 2 1 0 0 0 0 0 0 0 0 0
0 0 0 0 0 0 0 0 0 0 0 0 0 0 0 0 0 0 0 0 0 0 1 1 1 0 0 0 0 0 0 0 1 2 2 0 0 0 0 0 0 0 0 0
0 0 0 0 0 0 0 0 0 0 0 0 0 0 0 0 0 0 0 0 0 0 0 0 0 0 0 0 0 0 0 0 0 1 1 0 0 0 0 0 0 0 0 0
0 0 0 0 0 0 0 0 0 0 0 0 0 0 0 0 0 0 0 0 0 0 0 0 0 0 0 0 0 0 0 0 0 0 0 0 0 0 0 0 0 0 0 0
0 0 0 0 0 0 0 0 0 0 0 0 0 0 0 0 0 0 0 0 0 1 0 0 0 0 0 0 0 0 0 0 0 0 0 0 0 0 0 0 0 0 0 0
0 0 0 0 0 0 0 0 0 0 0 0 0 0 0 0 0 0 0 0 0 0 0 0 0 0 0 0 0 0 0 0 0 0 0 0 0 0 0 0 0 0 0 0
0 0 0 0 0 0 0 0 0 0 0 0 0 0 0 0 0 0 0 0 0 0 0 0 0 0 0 0 0 0 0 0 0 0 0 0 0 0 0 0 0 0 0 0
0 0 0 0 0 0 0 0 0 0 0 0 0 0 0 0 0 0 0 0 0 0 0 0 0 0 0 0 0 0 0 0 0 0 0 0 0 0 0 0 0 0 0 0
0 0 0 0 0 0 0 0 0 0 0 0 0 0 0 0 0 0 0 0 0 0 0 0 0 0 0 0 0 0 0 0 0 0 0 0 0 0 0 0 0 0 0 0
0 0 0 0 0 0 0 0 0 0 0 0 0 0 0 0 0 0 0 0 0 0 0 0 0 0 0 0 0 0 0 0 0 0 0 0 0 0 0 0 0 0 0 0
0 0 0 0 0 0 0 0 0 0 0 0 0 0 0 0 0 0 0 0 0 0 0 0 0 0 0 0 0 0 0 0 0 0 0 0 0 0 0 0 0 0 0 0
0 0 0 0 0 0 0 0 0 0 0 0 0 0 0 0 0 0 0 0 0 0 0 0 0 0 0 0 0 0 0 0 0 0 0 0 0 0 0 0 0 0 0 0
0 0 0 0 0 0 0 0 0 0 0 0 0 0 0 0 0 0 0 0 0 0 0 0 0 0 0 0 0 0 0 0 0 0 0 0 0 0 0 0 0 0 0 0
0 0 0 0 0 0 0 0 0 0 0 0 0 0 0 0 0 0 0 0 0 0 0 0 0 0 0 0 0 0 0 0 0 0 0 0 0 0 0 0 0 0 0 0
0 0 0 0 0 0 0 0 0 0 0 0 0 0 0 0 0 0 0 0 0 0 0 0 0 0 0 0 0 0 0 0 0 0 0 0 0 0 0 0 0 0 0 0
0 0 0 0 0 0 0 0 0 0 0 0 0 0 0 0 0 0 0 0 0 0 0 0 0 0 0 0 0 0 0 0 0 0 0 0 0 0 0 0 0 0 0 0
Wind_Speed
4 3 4 5 6 6 5 6 7 5 2 4 7 9 7 5 6 6 5 5 4 3 3 3 3 3 2 3 3 2 2 2 1 1 1 0 0 0 0 0 1 0 1 1
3 5 6 5 6 7 7 7 7 4 2 4 7 10 7 7 9 7 5 4 3 3 3 4 4 3 3 2 2 2 2 2 2 1 1 1 1 1 1 0 0 1 0 1
5 2 3 6 6 5 7 6 5 5 6 6 6 8 7 5 5 5 5 4 4 4 4 4 4 3 3 2 2 1 1 2 2 1 0 0 0 0 0 0 0 0 0 1
4 4 4 5 5 4 6 3 5 5 4 4 3 5 5 4 5 5 5 4 4 3 3 4 4 3 3 3 2 2 1 1 1 1 1 1 1 1 1 1 1 1 0 1
3 2 4 5 5 5 4 4 5 6 5 5 5 5 6 4 5 6 4 4 2 3 3 4 4 4 3 3 2 1 1 1 1 1 1 2 1 1 1 0 1 1 1 1
5 3 3 3 3 4 3 3 5 5 3 6 7 6 5 3 4 4 4 3 3 3 3 3 4 4 2 2 2 1 1 1 1 0 0 1 1 1 1 1 1 1 1 1
3 5 4 2 3 2 2 1 1 2 3 6 3 4 5 0 1 3 4 3 3 3 2 3 3 3 2 2 1 1 1 0 0 0 1 1 1 1 2 2 2 1 1 1
3 3 4 3 3 3 4 3 2 3 3 2 2 5 2 2 3 3 3 3 3 2 2 2 2 2 2 1 1 1 1 1 0 1 2 2 1 1 2 2 2 2 2 2
2 2 2 2 1 2 3 4 2 2 3 4 4 3 1 1 2 2 2 2 1 1 1 1 1 1 1 1 2 2 2 1 1 1 2 2 1 2 2 2 2 2 2 2
2 2 2 1 1 3 3 2 1 2 3 4 5 3 2 1 2 1 0 1 1 1 1 1 0 0 0 1 1 2 2 2 2 1 2 2 2 2 2 2 2 2 2 2
1 2 2 3 5 4 3 3 3 3 3 3 4 3 1 2 3 3 2 1 1 0 0 0 0 1 0 0 0 1 2 2 1 1 2 3 2 2 2 2 2 2 3 3
2 1 3 4 1 0 2 3 3 3 4 3 3 5 2 3 2 3 2 0 0 0 0 1 1 1 0 0 1 1 1 1 1 2 2 2 2 2 2 2 3 3 3 3
0 2 2 2 1 1 2 3 3 2 2 3 4 5 1 2 2 2 1 1 1 1 1 1 2 2 2 1 1 1 1 1 1 2 2 2 3 3 3 3 3 3 3 3
1 2 5 5 2 1 3 4 4 3 4 5 7 6 4 2 1 1 1 0 1 0 0 2 2 2 2 2 1 1 1 1 1 2 3 3 3 3 2 3 3 3 3 4
2 4 5 7 6 4 6 6 7 8 7 6 6 6 6 3 3 2 1 1 1 1 1 2 2 3 3 2 2 2 2 2 2 2 3 3 3 2 2 3 3 3 4 4
2 3 3 5 5 5 7 8 9 9 9 9 8 9 5 3 1 1 1 1 1 1 2 2 2 3 3 2 2 3 3 3 2 3 3 3 3 3 3 3 3 3 4 4
3 2 2 4 3 4 8 8 9 7 6 7 9 8 2 2 2 2 2 1 1 2 2 2 2 2 3 2 2 2 3 3 3 3 3 3 3 4 4 4 3 3 4 4
3 3 2 3 2 7 6 1 4 5 6 5 4 3 2 2 3 3 1 0 1 2 2 2 2 2 2 2 2 2 3 3 3 4 4 3 3 4 4 4 3 3 3 3
3 3 2 2 4 8 4 1 2 3 5 3 4 4 2 1 3 2 1 1 1 2 2 2 2 2 2 2 2 3 3 3 3 4 4 4 4 4 4 4 4 3 3 3
1 1 2 3 3 6 3 0 0 2 4 2 3 4 3 0 1 4 2 2 2 2 1 2 2 2 2 2 2 2 3 3 4 4 4 4 4 4 4 4 4 3 2 3
2 2 4 4 5 6 1 1 2 2 4 1 2 3 2 2 4 3 3 3 2 2 2 1 2 2 2 2 2 2 3 4 4 4 4 4 4 4 4 4 3 2 2 2
6 5 5 4 5 8 2 3 4 4 1 1 1 1 0 1 2 2 3 3 2 3 3 2 2 2 2 2 2 3 4 4 4 4 4 4 4 3 3 2 3 2 2 2
6 5 4 6 7 2 3 3 2 0 0 1 0 1 0 1 2 3 3 2 3 2 2 2 2 2 3 2 2 3 4 4 4 4 4 4 4 3 2 2 2 2 2 2
3 1 2 4 5 2 2 2 1 1 1 1 0 0 0 1 2 3 2 2 2 2 2 2 2 2 3 3 3 3 4 4 4 4 4 4 3 3 2 2 2 1 1 1
3 3 3 5 4 3 3 3 2 1 1 1 1 1 2 2 3 3 3 2 2 2 2 1 2 2 3 4 4 4 4 4 4 4 4 3 3 2 2 2 2 2 2 2
5 6 6 6 4 4 4 2 2 1 2 2 1 2 1 2 3 2 2 2 2 2 2 2 2 3 4 4 4 4 4 3 3 3 3 3 2 2 2 2 2 4 3 4
Wind_Direction
199 214 224 232 231 256 278 277 275 276 270 256 254 259 252 224 230 238 232 215 205 190 160 145 134 124 122 118 113 112 100 95 81 73 102 105 183 132 117 150 147 146 144 137
212 234 248 259 257 254 264 270 274 286 289 281 266 266 251 227 221 224 222 209 202 178 158 144 138 129 118 115 119 127 113 106 89 87 150 184 233 206 185 211 200 203 177 174
227 253 258 252 260 259 259 257 272 281 294 262 267 270 230 217 211 215 217 203 206 194 171 157 145 130 114 103 111 117 110 104 94 57 125 110 10 327 126 246 194 224 221 214
246 252 258 255 259 258 259 271 280 280 278 265 237 281 247 199 211 213 210 199 199 186 166 159 147 127 118 111 93 66 67 94 109 104 164 164 202 228 239 220 220 243 258 252
250 250 257 252 257 259 264 298 280 268 266 274 244 249 272 194 217 215 201 190 180 167 170 156 141 132 122 113 104 85 66 57 87 117 191 186 218 233 244 280 244 234 239 251
252 268 277 269 276 259 262 283 271 252 252 258 227 215 266 216 222 194 179 170 158 152 143 140 130 121 118 114 117 127 114 99 80 92 220 209 227 222 204 275 262 246 246 250
238 224 218 252 268 248 236 218 283 242 223 246 225 212 243 18 60 159 162 152 142 137 130 136 139 140 142 136 145 167 179 173 104 3 270 241 254 229 208 217 250 264 252 262
243 234 191 202 214 221 226 216 217 242 255 276 240 232 230 85 62 79 110 124 121 124 127 145 156 162 161 158 177 197 226 247 300 317 286 250 240 240 223 225 230 248 252 251
269 263 130 186 223 245 230 226 251 273 279 277 247 218 198 100 80 87 96 116 126 133 132 124 115 140 166 205 225 210 215 242 247 272 278 256 238 265 258 241 235 245 254 272
323 277 236 175 232 243 257 276 237 220 249 264 261 233 234 196 202 162 176 197 193 183 143 109 50 353 259 242 248 217 216 237 254 275 274 267 249 260 257 249 242 252 254 256
236 221 243 201 207 207 202 218 227 241 243 245 275 274 18 164 169 174 201 207 166 132 95 123 309 305 300 204 254 242 216 238 255 274 272 261 259 271 265 252 252 254 260 260
220 229 248 230 180 340 236 229 200 213 252 241 256 266 30 67 113 153 179 181 46 16 325 0 351 338 340 244 233 254 234 249 277 281 276 272 278 272 265 269 273 261 257 256
168 207 265 249 233 226 253 255 236 239 266 241 236 254 63 61 59 90 122 159 200 223 296 4 6 359 345 328 309 288 282 282 306 304 283 284 274 260 260 269 277 271 263 258
229 224 226 240 261 208 240 241 227 202 221 244 235 252 272 295 305 330 326 240 240 223 358 358 350 341 329 322 329 321 302 293 307 300 287 277 271 268 272 278 276 274 268 263
223 238 247 266 273 251 250 244 224 222 227 232 250 256 264 267 268 247 221 205 267 324 347 336 328 327 328 324 338 350 336 315 299 283 278 282 293 294 280 276 274 275 273 271
233 247 263 266 252 251 265 254 232 232 237 247 266 271 265 282 318 317 273 228 238 265 282 296 314 327 325 326 341 342 326 322 304 282 283 297 307 298 281 273 268 270 271 273
208 220 253 263 247 289 265 239 220 222 217 216 240 251 276 318 292 274 269 250 243 277 284 286 300 309 312 324 335 322 318 323 313 300 300 304 299 293 290 286 272 268 267 268
203 214 231 272 302 250 243 189 194 216 231 211 235 260 265 267 283 278 249 173 277 299 298 294 297 305 321 332 335 330 329 322 309 307 307 304 293 288 288 283 274 271 269 266
213 207 223 228 255 270 261 218 176 198 255 215 224 251 271 349 326 292 15 24 294 288 299 302 304 314 330 330 335 336 324 315 312 311 304 299 292 288 285 280 277 273 273 276
238 210 219 222 242 252 262 153 331 129 264 233 196 228 249 26 282 268 347 345 318 328 325 315 330 348 343 333 345 333 315 315 311 308 304 299 299 293 285 282 278 281 278 275
192 205 218 226 242 263 276 154 114 175 252 256 178 209 217 216 227 273 340 341 329 326 329 342 351 344 330 328 334 316 308 304 308 310 308 300 295 290 283 287 291 294 287 285
188 189 201 199 227 251 149 135 188 229 345 85 119 164 209 274 294 319 333 333 335 332 328 341 343 330 331 332 330 315 309 315 322 319 313 305 297 293 299 296 299 292 270 268
207 200 196 202 219 251 167 194 230 24 334 340 25 26 43 305 297 305 309 315 314 313 317 331 330 323 324 329 325 310 316 325 325 321 317 317 311 307 303 289 279 279 270 262
232 213 229 254 259 254 226 272 303 328 291 314 7 37 135 261 279 287 285 293 300 309 315 326 330 318 315 319 317 311 318 323 322 317 316 316 322 326 325 318 299 280 271 270
221 187 228 254 268 284 257 238 246 259 298 304 305 274 238 237 267 272 276 275 282 303 313 313 302 300 303 314 319 322 325 325 318 314 312 315 316 313 315 320 317 302 283 278
199 193 200 232 226 214 241 239 220 224 253 256 266 291 275 238 256 269 270 270 274 286 303 312 305 302 304 313 316 322 325 321 315 312 313 312 314 314 316 324 335 341 330 327